• In India
  • List of Countries
  • For 7 days
  • Water Temperature
  • Satellite Maps
  • Weather Map
  • Weather Widgets
  • user-avatar
    Login

    Hourly Weather Popivtsi

    Today, 19 October, Friday

    Time Temperature Precipitation Wind Pressure Humidity
    00:00 +12°C° 0 mm 1 mps 735 mmHg 73%
    01:00 +12°C° 0 mm 1 mps 735 mmHg 74%
    02:00 +11°C° 0 mm 1 mps 735 mmHg 76%
    03:00 +11°C° 0 mm 1 mps 735 mmHg 77%
    04:00 +11°C° 0 mm 1 mps 735 mmHg 78%
    05:00 +11°C° 0 mm 1 mps 734 mmHg 80%
    06:00 +11°C° 0 mm 1 mps 735 mmHg 80%
    07:00 +10°C° 0 mm 2 mps 735 mmHg 80%
    08:00 +10°C° 0 mm 2 mps 735 mmHg 81%
    09:00 +13°C° 0 mm 2 mps 735 mmHg 76%
    10:00 +15°C° 0 mm 2 mps 735 mmHg 71%
    11:00 +16°C° 0 mm 2 mps 735 mmHg 66%
    12:00 +17°C° 0 mm 2 mps 735 mmHg 63%
    13:00 +18°C° 0 mm 2 mps 735 mmHg 60%
    14:00 +19°C° 0 mm 2 mps 735 mmHg 58%
    15:00 +18°C° 0 mm 2 mps 735 mmHg 62%
    16:00 +17°C° 0 mm 2 mps 735 mmHg 67%
    17:00 +16°C° 0 mm 2 mps 735 mmHg 72%
    18:00 +15°C° 0 mm 2 mps 735 mmHg 75%
    19:00 +14°C° 0 mm 2 mps 735 mmHg 78%
    20:00 +14°C° 0 mm 2 mps 736 mmHg 82%
    21:00 +13°C° 0 mm 2 mps 736 mmHg 84%
    22:00 +13°C° 0 mm 2 mps 736 mmHg 85%
    23:00 +12°C° 0 mm 2 mps 736 mmHg 87%

    Tomorrow, 20 October, Saturday

    Time Temperature Precipitation Wind Pressure Humidity
    00:00 +12°C° 0 mm 2 mps 736 mmHg 88%
    01:00 +10°C° 0 mm 2 mps 736 mmHg 90%
    02:00 +10°C° 0 mm 2 mps 736 mmHg 91%
    03:00 +10°C° 0 mm 2 mps 737 mmHg 92%
    04:00 +9°C° 0 mm 2 mps 737 mmHg 92%
    05:00 +9°C° 0 mm 2 mps 737 mmHg 93%
    06:00 +9°C° 0 mm 2 mps 737 mmHg 93%
    07:00 +9°C° 0 mm 2 mps 737 mmHg 93%
    08:00 +9°C° 0 mm 2 mps 738 mmHg 93%
    09:00 +11°C° 0 mm 3 mps 738 mmHg 86%
    10:00 +12°C° 0 mm 3 mps 738 mmHg 79%
    11:00 +14°C° 0 mm 3 mps 738 mmHg 72%
    12:00 +14°C° 0 mm 4 mps 738 mmHg 69%
    13:00 +15°C° 0 mm 4 mps 738 mmHg 67%
    14:00 +15°C° 0 mm 4 mps 738 mmHg 64%
    15:00 +15°C° 0 mm 4 mps 738 mmHg 68%
    16:00 +14°C° 0 mm 3 mps 738 mmHg 71%
    17:00 +13°C° 0 mm 3 mps 738 mmHg 74%
    18:00 +12°C° 0 mm 3 mps 738 mmHg 75%
    19:00 +12°C° 0 mm 3 mps 738 mmHg 77%
    20:00 +11°C° 0 mm 3 mps 738 mmHg 78%
    21:00 +10°C° 0 mm 3 mps 738 mmHg 78%
    22:00 +9°C° 0 mm 3 mps 738 mmHg 77%
    23:00 +8°C° 0 mm 3 mps 738 mmHg 77%

    Day after tomorrow, 21 October, Sunday

    Time Temperature Precipitation Wind Pressure Humidity
    00:00 +8°C° 0 mm 3 mps 738 mmHg 75%
    01:00 +7°C° 0 mm 2 mps 738 mmHg 74%
    02:00 +7°C° 0 mm 2 mps 737 mmHg 73%
    03:00 +6°C° 0 mm 2 mps 737 mmHg 72%
    04:00 +6°C° 0 mm 2 mps 737 mmHg 72%
    05:00 +6°C° 0 mm 2 mps 737 mmHg 72%
    06:00 +7°C° 0 mm 2 mps 737 mmHg 72%
    07:00 +7°C° 0 mm 2 mps 737 mmHg 73%
    08:00 +7°C° 0 mm 2 mps 738 mmHg 73%
    09:00 +8°C° 0.1 mm 3 mps 738 mmHg 69%
    10:00 +9°C° 0.1 mm 3 mps 738 mmHg 64%
    11:00 +10°C° 0.1 mm 3 mps 738 mmHg 60%
    12:00 +10°C° 0.1 mm 3 mps 737 mmHg 59%
    13:00 +11°C° 0.1 mm 3 mps 737 mmHg 57%
    14:00 +11°C° 0.1 mm 3 mps 737 mmHg 56%
    15:00 +10°C° 0.1 mm 3 mps 737 mmHg 61%
    16:00 +9°C° 0.1 mm 2 mps 737 mmHg 65%
    17:00 +9°C° 0.1 mm 2 mps 737 mmHg 70%
    18:00 +8°C° 0 mm 2 mps 737 mmHg 74%
    19:00 +7°C° 0 mm 2 mps 738 mmHg 78%
    20:00 +6°C° 0 mm 2 mps 738 mmHg 83%
    21:00 +5°C° 0 mm 2 mps 738 mmHg 83%
    22:00 +5°C° 0 mm 2 mps 738 mmHg 84%
    23:00 +5°C° 0 mm 2 mps 738 mmHg 84%

    22 October, Monday

    Time Temperature Precipitation Wind Pressure Humidity
    00:00 +4°C° 0 mm 2 mps 739 mmHg 84%
    01:00 +5°C° 0 mm 1 mps 739 mmHg 84%
    02:00 +5°C° 0 mm 1 mps 739 mmHg 84%
    03:00 +4°C° 0 mm 1 mps 739 mmHg 85%
    04:00 +4°C° 0 mm 1 mps 739 mmHg 85%
    05:00 +4°C° 0 mm 1 mps 739 mmHg 86%
    06:00 +4°C° 0 mm 1 mps 739 mmHg 85%
    07:00 +4°C° 0 mm 1 mps 739 mmHg 84%
    08:00 +5°C° 0 mm 1 mps 739 mmHg 83%
    09:00 +5°C° 0 mm 2 mps 739 mmHg 76%
    10:00 +7°C° 0 mm 2 mps 739 mmHg 70%
    11:00 +9°C° 0 mm 2 mps 739 mmHg 64%
    12:00 +10°C° 0 mm 2 mps 739 mmHg 61%
    13:00 +11°C° 0 mm 1 mps 738 mmHg 59%
    14:00 +12°C° 0 mm 1 mps 738 mmHg 56%
    15:00 +11°C° 0 mm 1 mps 738 mmHg 60%
    16:00 +10°C° 0 mm 1 mps 737 mmHg 63%
    17:00 +9°C° 0 mm 1 mps 737 mmHg 67%
    18:00 +9°C° 0 mm 1 mps 737 mmHg 70%
    19:00 +8°C° 0 mm 1 mps 737 mmHg 72%
    20:00 +7°C° 0 mm 1 mps 737 mmHg 75%
    21:00 +7°C° 0 mm 1 mps 736 mmHg 76%
    22:00 +6°C° 0 mm 1 mps 736 mmHg 77%
    23:00 +6°C° 0 mm 1 mps 736 mmHg 79%

    23 October, Tuesday

    Time Temperature Precipitation Wind Pressure Humidity
    00:00 +5°C° 0 mm 1 mps 736 mmHg 79%
    01:00 +5°C° 0 mm 1 mps 735 mmHg 80%
    02:00 +5°C° 0 mm 1 mps 735 mmHg 80%
    03:00 +4°C° 0 mm 1 mps 735 mmHg 81%
    04:00 +4°C° 0 mm 1 mps 734 mmHg 82%
    05:00 +4°C° 0 mm 1 mps 734 mmHg 82%
    06:00 +3°C° 0 mm 2 mps 734 mmHg 82%
    07:00 +3°C° 0 mm 2 mps 734 mmHg 81%
    08:00 +3°C° 0 mm 2 mps 734 mmHg 80%
    09:00 +5°C° 0 mm 2 mps 734 mmHg 74%
    10:00 +7°C° 0 mm 3 mps 734 mmHg 69%
    11:00 +9°C° 0 mm 3 mps 734 mmHg 63%
    12:00 +9°C° 0 mm 3 mps 734 mmHg 63%
    13:00 +8°C° 0 mm 4 mps 734 mmHg 63%
    14:00 +10°C° 0 mm 4 mps 733 mmHg 63%
    15:00 +8°C° 0 mm 4 mps 733 mmHg 67%
    16:00 +7°C° 0 mm 4 mps 733 mmHg 71%
    17:00 +6°C° 0 mm 4 mps 733 mmHg 75%
    18:00 +5°C° 0 mm 3 mps 733 mmHg 76%
    19:00 +5°C° 0 mm 3 mps 733 mmHg 76%
    20:00 +4°C° 0 mm 3 mps 733 mmHg 76%
    21:00 +3°C° 0 mm 3 mps 733 mmHg 78%
    22:00 +3°C° 0 mm 3 mps 733 mmHg 80%
    23:00 +2°C° 0 mm 3 mps 733 mmHg 82%

    24 October, Wednesday

    Time Temperature Precipitation Wind Pressure Humidity
    00:00 +2°C° 0 mm 3 mps 732 mmHg 83%
    01:00 +2°C° 0 mm 3 mps 732 mmHg 84%
    02:00 +1°C° 0 mm 3 mps 731 mmHg 86%
    03:00 0°C° 0 mm 4 mps 731 mmHg 84%
    04:00 +1°C° 0 mm 4 mps 730 mmHg 83%
    05:00 +1°C° 0 mm 5 mps 730 mmHg 82%
    06:00 +1°C° 0 mm 5 mps 729 mmHg 81%
    07:00 +1°C° 0 mm 6 mps 728 mmHg 79%
    08:00 +2°C° 0 mm 6 mps 728 mmHg 77%
    09:00 +4°C° 0 mm 7 mps 727 mmHg 70%
    10:00 +5°C° 0 mm 8 mps 726 mmHg 63%
    11:00 +7°C° 0 mm 10 mps 725 mmHg 56%
    12:00 +7°C° 0.6 mm 10 mps 723 mmHg 58%
    13:00 +6°C° 0.6 mm 10 mps 722 mmHg 61%
    14:00 +6°C° 0.6 mm 10 mps 721 mmHg 64%
    15:00 +6°C° 0.5 mm 11 mps 720 mmHg 68%
    16:00 +6°C° 0.5 mm 11 mps 719 mmHg 72%
    17:00 +6°C° 0.5 mm 11 mps 718 mmHg 76%
    18:00 +6°C° 1.2 mm 11 mps 718 mmHg 76%
    19:00 +6°C° 1.2 mm 10 mps 718 mmHg 77%
    20:00 +6°C° 1.2 mm 10 mps 718 mmHg 77%
    21:00 +5°C° 0.2 mm 9 mps 718 mmHg 75%
    22:00 +3°C° 0.2 mm 9 mps 719 mmHg 74%
    23:00 +2°C° 0.2 mm 8 mps 719 mmHg 72%
    Show more